Location: Bismarck
(46.7731°N, 100.8200°W)
Time: 06:04:03
(UTC-05:00)

ISS - All Passes

Search period start: 07 July 2015 00:00
Search period end: 17 July 2015 00:00
Orbit: 398 x 402 km, 51.6° (Epoch: 06 July)

Date Brightness Start Highest point End Pass type
(mag) Time Alt. Az. Time Alt. Az. Time Alt. Az.
07 Jul - 07:20:07 10° SE 07:20:42 10° SE 07:21:25 10° ESE daylight
07 Jul - 08:53:22 10° SW 08:56:35 63° SSE 08:59:48 10° ENE daylight
07 Jul - 10:30:01 10° W 10:33:07 39° NNW 10:36:11 10° ENE daylight
07 Jul - 12:06:55 10° WNW 12:09:57 36° N 12:13:01 10° ENE daylight
07 Jul - 13:43:19 10° WNW 13:46:34 80° SSW 13:49:48 10° ESE daylight
07 Jul - 15:20:46 10° WSW 15:22:32 14° SW 15:24:15 10° SSW daylight
08 Jul - 08:00:03 10° SSW 08:03:04 36° SE 08:06:06 10° ENE daylight
08 Jul - 09:36:14 10° W 09:39:24 50° NNW 09:42:35 10° ENE daylight
08 Jul - 11:13:13 10° WNW 11:16:13 33° N 11:19:12 10° ENE daylight
08 Jul - 12:49:43 10° WNW 12:52:57 65° NNE 12:56:11 10° ESE daylight
08 Jul - 14:26:26 10° W 14:29:08 24° SW 14:31:47 10° SSE daylight
09 Jul - 07:07:06 10° S 07:09:35 21° SE 07:12:08 10° E daylight
09 Jul - 08:42:28 10° WSW 08:45:43 73° NNW 08:48:58 10° ENE daylight
09 Jul - 10:19:26 10° WNW 10:22:26 33° N 10:25:26 10° ENE daylight
09 Jul - 11:56:05 10° WNW 11:59:15 46° NNE 12:02:24 10° E daylight
09 Jul - 13:32:33 10° WNW 13:35:38 41° SW 13:38:42 10° SE daylight
10 Jul - 06:14:55 10° SSE 06:16:09 12° SE 06:17:30 10° ESE daylight
10 Jul - 07:48:51 10° SW 07:52:04 70° SSE 07:55:19 10° ENE daylight
10 Jul - 09:25:34 10° W 09:28:38 37° N 09:31:42 10° ENE daylight
10 Jul - 11:02:25 10° WNW 11:05:29 37° N 11:08:33 10° E daylight
10 Jul - 12:38:49 10° WNW 12:42:03 73° SSW 12:45:17 10° SE daylight
10 Jul - 14:16:33 10° WSW 14:17:59 12° SW 14:19:20 10° SSW daylight
11 Jul - 06:55:25 10° SW 06:58:29 40° SE 07:01:33 10° ENE daylight
11 Jul - 08:31:42 10° W 08:34:52 47° NNW 08:38:01 10° ENE daylight
11 Jul - 10:08:40 10° WNW 10:11:40 33° N 10:14:41 10° ENE daylight
11 Jul - 11:45:09 10° WNW 11:48:23 71° NNE 11:51:37 10° ESE daylight
11 Jul - 13:21:57 10° W 13:24:31 21° SW 13:27:03 10° S daylight
12 Jul - 06:02:18 10° SSW 06:04:56 23° SE 06:07:36 10° E daylight
12 Jul - 07:37:52 10° WSW 07:41:06 67° NNW 07:44:21 10° ENE daylight
12 Jul - 09:14:50 10° WNW 09:17:50 33° N 09:20:50 10° ENE daylight
12 Jul - 10:51:28 10° WNW 10:54:38 49° NNE 10:57:48 10° E daylight
12 Jul - 12:27:56 10° WNW 12:30:59 37° SW 12:34:00 10° SSE daylight
13 Jul - 05:09:48 10° SSE 05:11:26 13° SE 05:13:08 10° ESE visible
13 Jul - 06:44:08 10° WSW 06:47:23 78° SSE 06:50:38 10° ENE daylight
13 Jul - 08:20:55 10° WNW 08:23:58 36° N 08:27:02 10° ENE daylight
13 Jul - 09:57:44 10° WNW 10:00:49 38° N 10:03:54 10° E daylight
13 Jul - 11:34:08 10° WNW 11:37:22 65° SSW 11:40:34 10° SE daylight
13 Jul - 13:12:18 10° WSW 13:13:14 11° SW 13:14:03 10° SSW daylight
14 Jul - 05:50:36 10° SW 05:53:43 45° SSE 05:56:51 10° ENE daylight
14 Jul - 07:26:59 10° W 07:30:08 44° NNW 07:33:16 10° ENE daylight
14 Jul - 09:03:56 10° WNW 09:06:57 34° N 09:09:58 10° ENE daylight
14 Jul - 10:40:23 10° WNW 10:43:38 77° NNE 10:46:53 10° ESE daylight
14 Jul - 12:17:18 10° W 12:19:43 19° SW 12:22:06 10° S daylight
15 Jul - 04:57:20 10° SSW 05:00:05 26° SE 05:02:52 10° E visible
15 Jul - 06:33:03 10° WSW 06:36:18 62° NNW 06:39:32 10° ENE daylight
15 Jul - 08:10:03 10° WNW 08:13:02 33° N 08:16:02 10° ENE daylight
15 Jul - 09:46:38 10° WNW 09:49:50 52° NNE 09:53:01 10° E daylight
15 Jul - 11:23:09 10° WNW 11:26:08 33° SW 11:29:05 10° SSE daylight
16 Jul - 04:04:36 10° S 04:06:31 15° SE 04:08:29 10° E visible
16 Jul - 05:39:15 10° WSW 05:42:30 85° SSE 05:45:46 10° ENE daylight
16 Jul - 07:16:05 10° WNW 07:19:07 35° N 07:22:10 10° ENE daylight
16 Jul - 08:52:51 10° WNW 08:55:57 40° NNE 08:59:03 10° E daylight
16 Jul - 10:29:15 10° WNW 10:32:28 59° SSW 10:35:39 10° SE daylight
